Wind_Speed
15 14 14 13 12 13 12 12 11 11 10 10 11 11 10 11 11 12 11 11 12 12 12 13 12 13 13 13 13 14 17 17 16 10 8 9 6 5 6 4 12 18 16 13 12 11 8 5 7 7 6 3 0 1 1 0 1 2 2 2 3 3 3 4 5 4 1 2 3 5 5 5 5 3 3 4 7 7 5 6 5 5 6 6 12 21 24 22
15 15 14 13 12 13 13 12 11 11 10 11 11 11 11 11 11 11 11 11 12 12 12 12 13 13 13 13 13 15 17 16 15 12 9 6 3 5 6 7 12 20 18 12 11 11 8 5 6 6 4 2 0 1 2 1 1 1 2 2 3 3 2 3 3 2 1 2 5 5 1 3 5 2 2 2 3 5 4 5 4 6 8 10 16 22 23 22
16 15 14 13 13 13 12 12 11 11 11 11 11 11 10 10 10 10 11 11 11 11 12 12 12 12 12 13 13 15 17 13 9 6 2 2 4 8 7 9 13 20 16 9 10 10 9 10 10 6 3 2 1 1 2 1 2 1 1 2 3 4 3 3 4 4 3 2 6 4 1 3 3 2 1 1 3 3 3 3 3 5 8 12 15 19 21 21
17 16 15 14 13 13 12 12 11 11 10 11 10 10 10 10 10 10 10 11 11 11 11 12 12 12 12 13 13 15 13 6 2 1 1 4 1 9 11 12 15 17 11 8 10 8 10 12 8 3 2 3 1 1 3 2 2 2 2 2 2 3 3 4 5 5 3 2 4 3 3 3 1 1 1 3 5 3 4 4 5 8 13 15 15 16 19 19
17 17 16 15 13 13 12 11 11 11 10 10 10 9 10 9 9 10 10 10 10 10 11 11 11 12 12 12 13 12 8 1 2 2 3 5 1 10 14 15 16 14 11 12 12 9 10 8 4 2 2 3 2 3 3 2 2 2 2 2 3 4 3 5 4 3 3 2 2 2 4 3 1 1 2 5 5 1 1 1 3 10 15 18 17 16 16 17
17 17 17 15 14 13 12 11 11 11 10 10 9 9 9 9 9 9 9 9 9 10 10 11 10 11 11 11 11 8 3 1 2 3 4 4 3 12 16 17 16 14 14 14 12 8 6 3 2 4 2 2 4 4 3 2 2 3 2 1 3 4 4 3 2 2 3 2 3 2 3 2 1 1 1 5 4 2 3 2 5 12 16 18 18 16 16 16
17 18 18 16 15 14 12 12 11 10 10 9 9 9 9 8 8 8 9 8 8 9 10 9 10 9 10 10 7 3 1 4 5 4 5 4 5 13 18 17 16 16 14 13 9 5 4 3 4 4 3 3 2 4 3 2 2 3 2 1 3 5 6 5 3 2 2 4 3 1 3 4 4 2 1 4 3 4 4 2 10 14 17 18 17 16 16 16
18 17 18 17 16 15 13 12 11 10 10 9 9 8 8 8 8 8 8 8 8 8 8 8 8 8 9 9 3 1 1 4 6 5 5 2 8 16 19 17 15 16 14 12 8 4 4 5 5 4 3 3 3 4 3 2 2 3 4 2 1 4 6 4 3 5 4 5 2 2 5 5 4 1 1 2 3 4 3 7 13 15 17 16 16 17 15 14
18 18 17 17 17 15 14 12 11 10 10 9 8 8 8 7 7 7 7 7 7 7 7 7 8 7 8 6 2 1 2 2 7 5 2 1 11 18 19 16 16 15 11 10 8 6 5 4 4 4 3 2 3 4 3 4 3 4 5 2 2 3 5 3 4 5 4 3 4 5 5 2 1 2 2 2 2 3 6 9 12 15 17 16 15 16 13 13
18 18 17 17 17 16 15 13 11 10 9 9 8 8 8 7 7 7 6 6 6 6 6 6 6 6 6 4 0 1 1 4 9 5 3 2 12 19 19 16 18 16 10 7 7 7 5 4 4 3 2 3 2 3 2 4 2 3 4 3 5 4 4 3 4 3 1 3 6 6 3 2 1 3 3 1 3 7 9 10 12 14 16 15 14 12 11 12
19 19 18 18 17 17 16 14 12 11 9 9 8 8 8 7 7 6 5 6 5 6 5 4 4 4 3 2 1 2 2 4 9 8 5 3 11 18 18 16 19 17 11 6 7 9 3 2 5 1 1 3 3 3 2 3 2 1 3 2 4 4 5 4 5 4 2 3 6 6 2 4 3 3 2 4 8 9 11 11 12 13 14 14 12 10 10 11
20 19 19 19 18 18 17 15 13 11 10 9 8 8 7 7 6 6 5 5 4 4 3 2 3 2 1 1 4 6 5 5 9 7 3 4 7 13 16 16 17 16 14 8 6 10 5 2 5 1 2 3 3 2 1 2 1 1 2 3 3 3 4 5 3 2 3 2 5 6 2 2 4 3 2 7 10 10 11 11 12 12 12 12 10 10 10 11
20 19 19 19 19 19 18 17 15 12 10 10 9 8 7 7 6 6 5 4 3 3 2 2 2 1 1 2 5 5 6 8 10 5 3 5 5 8 12 15 16 14 14 9 4 8 8 4 2 2 2 3 1 1 2 2 0 2 2 2 2 2 3 4 1 1 3 2 5 6 4 4 5 3 5 9 12 12 11 11 11 11 10 9 9 9 10 10
20 19 19 19 19 19 19 18 16 13 11 10 9 8 8 7 6 5 4 3 3 2 1 1 2 2 1 5 6 6 7 8 9 7 6 8 6 6 8 13 15 12 10 5 2 6 10 5 2 2 2 1 0 0 0 1 1 1 2 1 1 2 3 2 2 3 3 1 4 6 5 4 4 4 8 10 12 13 12 12 12 11 10 8 9 10 9 9
19 19 19 18 18 18 18 19 17 14 11 10 9 8 8 6 5 4 3 3 2 1 2 2 1 1 1 7 7 4 5 5 6 8 8 10 9 6 8 12 12 10 8 5 2 3 9 7 0 1 1 0 1 1 0 1 2 1 1 2 0 2 2 1 2 4 3 2 3 7 4 5 3 3 9 11 12 13 12 12 12 11 10 9 9 9 9 8
19 19 19 18 18 18 18 18 18 15 11 9 9 8 7 6 4 3 2 1 1 2 3 1 1 1 2 3 4 3 4 4 3 4 6 11 9 6 10 12 9 7 7 5 3 4 5 5 1 1 1 1 2 2 2 1 1 1 1 2 1 2 2 1 1 2 2 2 3 7 3 3 1 2 9 12 13 12 10 11 11 11 10 9 9 8 8 7
19 19 19 19 18 18 17 17 17 16 12 9 8 8 7 5 2 1 2 3 1 2 4 1 1 1 3 4 5 2 2 3 3 2 7 11 8 8 13 8 5 6 5 2 3 2 1 1 0 1 1 1 1 1 2 2 2 1 1 1 1 2 2 1 1 1 1 2 4 6 6 4 2 3 11 12 12 12 10 11 11 11 10 9 8 8 8 8
19 19 19 19 19 18 17 16 16 16 13 10 8 8 5 0 2 2 3 5 3 3 3 1 1 1 2 3 3 2 4 4 1 1 9 11 8 11 10 5 5 7 5 2 1 1 1 0 1 1 1 1 1 2 3 3 3 3 2 1 1 2 3 3 2 1 1 3 4 6 8 7 1 4 11 11 11 11 9 10 10 10 11 10 9 8 8 9
19 19 19 19 19 18 17 16 16 15 14 10 7 5 2 3 3 2 3 3 3 2 2 2 3 1 2 3 4 6 8 5 2 2 9 13 10 9 5 5 8 7 4 2 1 2 1 1 1 2 2 2 3 4 3 2 3 4 2 1 1 2 3 4 3 0 0 3 5 6 8 7 4 6 10 11 11 11 9 9 9 10 10 10 10 9 9 10
20 20 19 19 19 18 17 16 15 15 13 8 3 2 1 1 1 1 2 3 5 5 5 4 6 3 4 5 5 5 4 2 2 3 11 14 12 8 2 3 4 2 2 2 2 2 0 2 2 3 4 4 4 3 2 3 3 3 2 2 2 2 4 3 1 1 1 3 3 4 5 4 4 7 9 10 10 10 10 10 9 10 10 10 11 11 10 10
21 20 20 20 19 19 18 16 15 15 12 6 1 0 1 0 1 2 1 5 7 8 9 9 8 7 6 4 2 3 2 1 1 2 11 13 12 9 1 2 2 2 1 0 2 2 1 3 4 5 5 3 3 4 4 4 2 1 2 2 2 3 4 2 0 1 1 3 1 2 4 2 2 5 5 6 9 10 10 10 9 11 11 10 11 12 12 9
21 21 21 21 19 19 17 16 16 15 10 4 1 2 2 1 0 3 2 5 7 9 12 9 5 8 9 7 6 1 2 2 1 1 9 10 7 6 2 1 3 3 1 0 2 1 2 5 6 4 4 5 4 4 3 3 2 1 1 2 1 2 3 1 1 3 2 2 0 3 4 2 2 1 1 2 4 6 7 8 8 10 10 10 11 11 11 10
21 21 22 21 20 19 16 16 16 12 6 2 4 4 2 1 4 5 2 4 6 5 7 7 5 7 7 7 9 7 3 4 3 2 9 10 3 3 4 3 2 2 2 3 3 3 3 4 3 4 6 6 4 3 4 3 1 2 2 2 1 0 1 1 1 3 3 0 1 4 4 3 3 2 2 1 2 2 3 4 6 8 9 10 10 9 11 12
22 22 23 22 21 18 16 17 12 5 3 5 8 5 2 4 8 3 3 3 5 2 4 6 5 6 6 4 8 12 5 4 3 3 10 10 4 3 4 3 3 3 2 4 4 4 4 1 2 6 6 5 4 3 4 3 2 2 3 4 2 1 3 1 1 2 2 2 4 3 4 3 2 4 5 2 1 2 4 4 6 8 9 8 9 10 10 11
22 22 23 23 21 18 17 14 4 1 8 10 8 3 2 10 9 3 3 2 3 3 2 4 3 5 6 4 9 10 4 3 5 4 10 11 7 4 2 2 3 3 3 4 4 4 4 1 4 5 3 4 4 3 5 5 3 2 5 8 6 3 3 2 1 1 2 3 3 1 2 3 3 3 4 3 4 5 4 6 9 9 10 9 9 10 10 11
23 23 23 22 21 20 15 6 2 6 12 7 4 2 8 16 7 6 3 2 2 4 1 2 2 4 6 5 7 7 4 3 4 5 10 11 10 5 3 2 1 2 4 4 3 2 2 2 3 3 3 4 4 3 5 6 3 1 3 7 7 4 2 2 1 1 2 2 2 1 1 3 3 3 1 2 6 7 5 6 8 9 10 10 10 11 11 12
23 24 24 22 21 18 9 3 6 9 6 2 1 5 13 15 1 8 1 2 2 2 0 0 1 4 5 4 6 6 4 2 3 6 8 10 9 2 2 4 1 1 3 3 2 2 3 4 2 2 4 4 4 3 5 8 5 2 1 5 7 5 4 3 1 1 0 0 1 1 2 2 3 2 1 2 5 7 6 7 8 8 9 10 11 12 12 12
25 26 25 22 19 14 7 9 10 6 5 4 5 9 14 8 6 6 1 1 2 1 1 1 0 4 2 2 5 3 1 2 4 4 4 8 6 2 2 6 4 4 3 3 5 1 3 4 4 4 3 3 4 3 8 11 4 0 2 4 5 4 3 2 2 2 1 1 3 1 3 1 2 1 1 3 4 6 6 7 7 7 8 9 10 11 11 12
28 28 25 22 19 13 7 9 8 6 8 8 7 11 11 1 6 2 2 0 2 1 1 0 2 2 2 3 4 4 2 1 1 1 2 5 3 2 2 4 4 4 2 2 4 0 0 3 4 5 2 3 3 0 7 9 2 2 5 6 6 4 3 2 1 3 1 2 4 1 4 1 3 0 1 2 3 3 2 3 3 4 6 7 8 8 8 8
31 29 24 20 17 11 5 9 12 10 8 7 9 11 5 3 3 2 1 2 2 1 1 1 1 0 4 5 3 3 1 2 2 3 2 2 1 3 1 2 4 4 1 1 2 1 1 1 1 3 2 2 3 4 1 2 3 5 6 6 5 3 2 2 2 2 2 3 2 2 5 1 3 1 1 1 1 1 3 3 2 3 5 6 6 6 6 6
32 29 23 18 14 8 3 6 9 4 1 6 12 8 0 2 2 2 2 2 1 0 1 0 0 1 4 4 2 2 2 1 2 4 4 2 3 2 1 2 3 2 1 1 2 1 2 1 1 2 1 3 5 5 3 2 3 3 2 4 4 2 1 1 1 0 4 3 2 2 3 2 3 2 1 1 2 3 4 5 6 6 7 5 4 4 5 4
32 27 23 17 13 11 10 8 5 4 5 10 11 3 2 1 1 2 3 2 1 0 1 0 1 0 2 1 2 3 2 2 1 4 4 3 4 4 3 3 3 2 1 3 2 1 2 3 2 2 1 3 4 5 3 2 1 1 2 4 4 2 1 2 1 1 3 1 1 2 1 1 2 1 2 3 5 5 5 5 7 9 8 6 4 2 1 2
30 26 21 16 12 16 17 14 12 12 12 10 5 2 3 1 3 3 3 2 1 1 0 1 2 0 2 1 2 2 2 3 3 3 3 2 4 5 1 1 3 2 1 2 2 1 3 2 1 1 1 2 5 5 4 3 3 4 4 4 4 4 2 3 1 1 2 1 1 2 1 1 1 1 2 4 6 6 5 5 5 6 5 3 3 5 6 7
29 24 18 13 9 12 14 13 12 10 8 4 1 3 3 3 2 2 3 3 1 2 1 1 3 2 2 1 1 2 2 2 3 4 3 3 3 4 2 1 2 1 2 2 2 2 3 2 2 3 1 2 6 4 3 4 4 2 1 1 4 4 3 3 3 3 3 1 2 1 1 2 2 1 3 5 4 3 3 3 2 2 3 6 8 10 11 10
27 19 11 7 7 9 11 10 9 7 3 1 2 2 4 4 2 1 2 2 1 2 3 1 1 1 1 1 2 0 2 1 1 3 4 3 3 3 3 4 4 2 2 3 2 1 1 3 2 1 1 2 5 2 3 4 4 1 0 1 2 3 3 1 0 1 1 1 1 2 1 1 0 0 2 3 1 2 3 2 3 6 7 9 10 11 11 10
24 13 4 7 14 14 12 8 7 11 6 2 2 3 3 2 2 2 1 1 1 1 3 2 1 0 1 1 1 1 0 1 1 2 2 2 3 3 2 3 5 5 4 3 2 1 1 2 2 1 1 0 2 2 2 1 3 3 2 3 1 0 4 3 2 2 1 2 2 1 1 1 1 2 3 3 3 3 3 3 5 6 8 10 10 10 10 10
21 9 2 10 22 18 11 4 11 14 5 2 4 4 2 2 3 3 1 0 1 1 1 1 0 0 1 1 1 1 0 1 1 1 2 1 1 3 3 2 4 8 6 2 1 2 2 2 1 0 2 2 2 2 5 3 1 3 3 5 4 1 2 2 2 2 0 3 2 0 1 1 2 3 3 4 4 4 4 4 5 5 7 8 8 6 7 8
16 6 1 12 24 17 6 6 16 13 3 2 4 3 2 2 2 2 0 1 1 1 1 1 1 1 0 1 1 1 1 1 1 1 2 1 1 2 2 1 3 4 4 2 2 1 2 2 1 1 1 2 3 1 5 4 3 1 2 5 3 2 2 2 1 2 3 3 1 1 0 1 4 2 2 5 5 5 5 3 4 4 5 5 5 4 3 4
8 2 1 14 21 10 4 13 15 7 1 3 4 2 2 2 1 2 1 1 1 1 0 1 1 1 1 1 1 1 1 2 2 1 1 1 1 1 1 1 0 1 2 2 3 1 1 2 2 0 1 1 1 1 3 3 4 4 4 3 1 1 2 2 1 1 4 3 1 2 1 3 4 2 3 6 6 6 7 5 4 3 2 2 2 2 1 2
3 1 1 14 15 9 13 12 7 2 2 3 2 1 1 2 2 3 3 2 1 1 0 1 1 1 1 1 1 1 1 1 2 1 1 2 2 1 1 1 2 3 2 2 2 1 1 2 2 0 1 2 1 0 2 3 3 2 4 4 1 1 1 1 2 1 1 3 2 3 3 2 1 0 1 2 3 5 6 5 4 3 3 3 3 3 2 3
2 1 3 11 8 7 6 4 2 1 2 1 0 1 0 1 1 2 1 2 2 1 0 2 2 1 1 1 2 1 1 0 2 1 1 2 2 1 1 1 2 3 2 2 2 1 1 2 2 0 0 2 1 2 2 2 2 2 3 3 3 3 3 4 3 1 0 1 2 3 3 2 3 2 2 2 2 3 4 4 4 3 4 4 3 3 3 3
1 1 6 13 2 3 3 1 1 1 2 0 0 2 1 0 1 1 1 1 1 0 1 1 2 2 2 2 2 1 1 1 2 1 1 1 0 0 1 3 4 3 1 0 1 1 1 2 2 1 1 1 1 2 1 1 2 2 1 1 2 2 3 3 4 3 2 1 1 1 2 2 3 3 3 3 3 1 3 3 4 4 4 5 4 4 4 4
2 0 8 15 2 6 2 2 0 2 0 1 1 1 1 1 0 1 1 2 1 0 1 1 1 1 2 1 1 2 2 2 1 1 1 1 1 2 3 1 6 5 2 1 1 0 1 1 2 2 1 1 0 0 1 0 2 3 4 3 0 1 2 1 1 2 3 3 2 2 3 3 4 5 3 1 1 3 4 3 5 5 5 5 5 5 4 4
1 2 4 16 12 3 2 2 1 2 2 3 2 2 3 1 2 2 1 2 2 1 1 1 1 0 1 1 0 1 1 1 0 1 1 1 2 2 6 1 8 5 2 1 0 1 0 0 1 3 3 1 2 2 1 1 1 2 2 2 1 2 4 3 2 2 3 2 2 3 4 3 3 5 6 5 5 6 6 5 5 5 5 4 4 4 4 4
2 1 2 11 17 11 4 0 1 1 2 3 3 4 5 2 2 2 2 2 2 1 0 1 1 1 1 1 1 2 2 0 1 1 1 1 1 2 6 5 4 6 3 1 1 1 1 1 1 2 5 5 4 2 1 1 1 1 1 1 1 2 3 3 3 3 4 3 2 2 2 3 3 5 8 8 6 6 7 6 6 5 5 4 4 4 4 4
1 2 2 4 8 7 2 1 2 1 1 1 2 5 5 2 2 2 2 3 2 2 2 2 2 1 1 2 2 2 3 2 1 1 2 2 1 2 4 6 3 5 10 9 5 3 3 2 2 1 1 2 2 1 1 1 1 2 2 2 2 2 1 2 3 2 3 4 3 1 1 5 3 5 8 8 7 6 5 5 5 5 5 5 4 5 5 5
1 1 2 2 3 3 3 4 5 4 3 1 2 4 6 5 3 2 2 3 2 2 2 3 5 3 1 0 2 2 3 3 4 3 2 2 1 2 4 3 5 6 7 7 3 2 4 3 3 4 5 5 3 1 0 1 3 4 3 3 3 3 2 2 2 2 3 4 3 1 2 4 3 6 7 6 7 5 5 5 4 4 4 4 4 6 7 7
2 1 1 2 2 2 3 4 5 7 7 4 2 4 7 7 7 4 4 2 3 4 2 2 8 8 2 1 2 2 3 3 5 4 3 3 2 2 4 2 5 8 4 3 2 2 5 1 2 2 5 7 6 4 3 4 4 4 5 6 5 5 4 2 3 1 1 1 1 3 5 4 2 5 6 6 5 4 4 4 3 4 4 3 6 8 8 8
2 1 1 1 1 1 2 4 4 6 9 7 4 6 8 9 9 6 4 2 2 6 5 2 6 10 6 2 2 2 3 2 4 4 3 4 3 3 3 2 3 7 5 4 2 1 4 1 1 1 4 7 7 5 5 5 3 4 7 7 6 6 6 5 4 2 3 4 3 5 9 7 3 4 5 5 3 2 3 4 5 6 5 6 9 9 9 9
2 1 2 1 2 2 2 3 3 4 6 6 4 6 7 9 9 6 5 5 3 5 6 3 4 7 6 7 6 6 4 3 2 3 3 2 3 3 3 1 2 6 5 3 1 0 2 2 1 1 3 4 5 4 6 6 5 4 5 6 6 5 5 5 4 2 3 6 4 5 8 7 3 3 4 3 2 4 6 8 9 7 6 8 11 10 9 9
2 1 1 1 2 4 3 2 3 2 4 5 4 5 6 8 9 5 3 5 5 3 5 4 4 3 3 9 9 6 4 3 2 2 3 2 3 2 1 1 1 4 4 2 1 1 2 3 2 2 2 0 3 4 5 6 6 4 2 4 6 4 3 4 3 3 2 3 5 4 4 4 3 3 5 6 7 9 11 10 9 8 9 11 12 11 11 10
3 1 1 1 1 4 3 2 3 3 2 3 3 4 4 6 10 6 2 3 5 6 4 5 3 2 3 8 8 6 6 6 6 5 4 1 2 3 2 2 2 2 2 2 1 1 1 4 4 2 3 2 2 4 4 4 3 1 1 1 2 2 3 2 3 4 4 1 2 2 3 4 3 3 7 9 11 12 11 9 8 9 10 12 12 12 11 11
Wind_Direction
336 332 328 326 322 320 321 318 315 316 315 315 316 316 320 322 322 323 326 327 326 325 323 322 320 322 323 321 320 314 310 312 309 296 259 265 282 223 220 193 172 169 160 146 141 141 132 130 136 141 146 138 345 150 157 150 145 180 183 203 206 186 176 186 194 188 138 0 344 355 6 13 11 41 124 112 90 95 84 59 50 52 53 83 107 118 125 130
341 337 333 328 322 319 320 317 314 314 313 313 313 315 317 318 321 323 326 328 326 324 322 322 322 323 323 323 323 316 316 314 299 276 258 268 252 219 206 171 170 173 166 153 155 153 146 148 149 145 138 151 13 133 169 169 193 180 151 217 210 182 182 200 201 196 222 331 331 336 26 13 337 288 183 186 125 123 103 65 60 83 89 106 119 125 129 133
345 342 338 332 326 321 319 316 314 313 312 312 312 315 316 317 320 322 325 325 325 324 322 323 323 323 325 325 322 317 317 313 292 257 245 13 223 209 178 159 168 172 171 163 163 164 161 156 156 147 122 144 102 152 163 155 200 175 182 229 201 202 240 229 215 221 227 308 320 323 341 354 330 225 262 247 163 178 180 134 136 140 134 132 133 133 134 138
349 346 343 338 331 324 320 316 313 312 311 311 311 314 316 316 319 321 325 325 324 324 322 324 322 322 325 324 319 318 318 302 259 194 77 20 207 182 170 155 154 165 173 165 160 160 149 143 144 130 114 138 65 175 167 171 189 156 200 218 148 177 240 244 233 225 212 254 293 320 315 330 53 159 257 179 167 230 232 186 168 167 157 148 144 142 141 143
352 350 347 343 336 328 323 318 314 311 308 307 308 313 314 315 317 319 323 325 326 326 325 325 322 324 323 321 322 321 320 217 163 339 11 8 126 165 165 152 144 153 158 151 148 144 139 130 121 109 103 142 143 170 176 178 160 160 199 196 138 157 231 261 268 236 184 215 258 304 317 323 98 189 186 179 191 233 246 217 167 162 161 157 152 147 147 150
353 353 351 347 341 334 327 321 316 311 305 303 307 311 310 311 316 318 321 323 326 327 326 326 325 327 324 323 326 328 324 250 267 297 334 355 149 160 160 152 146 147 147 143 139 141 135 103 131 143 114 127 159 172 172 168 177 208 194 189 194 185 233 258 267 231 157 178 250 267 315 328 267 318 151 200 237 335 341 281 169 158 162 160 153 151 154 157
355 354 352 350 346 340 334 325 319 313 307 305 307 309 307 310 315 317 318 320 323 324 324 325 328 329 333 334 325 340 334 275 293 301 311 321 161 162 161 155 153 152 149 142 133 134 126 125 152 149 132 128 175 184 160 136 178 230 198 227 224 193 227 237 235 260 190 215 240 289 307 282 261 309 146 208 268 351 347 176 152 151 158 160 158 159 160 159
357 355 354 353 349 345 340 330 323 317 312 308 307 307 307 309 312 314 316 318 320 323 323 325 331 331 339 348 337 333 265 263 309 315 309 297 169 169 163 157 161 159 154 151 144 147 145 150 159 162 159 137 178 172 150 157 165 221 214 225 210 197 235 245 255 264 254 238 203 192 258 263 242 213 205 247 349 26 73 129 142 148 157 162 164 163 161 158
355 356 355 354 353 350 343 336 330 321 316 310 306 304 305 308 309 311 311 316 321 324 326 327 328 328 339 352 346 305 250 300 337 324 324 186 176 174 168 164 167 162 153 152 145 149 164 171 172 191 180 122 174 160 155 204 196 207 203 207 216 246 266 263 265 253 255 246 159 189 234 258 218 180 216 277 29 97 124 136 145 153 160 164 165 163 158 149
356 356 356 355 354 352 347 342 335 327 321 313 307 304 305 305 301 305 309 315 324 324 327 330 322 317 334 344 254 301 300 9 11 25 56 161 176 174 176 174 171 167 153 149 153 158 178 197 177 188 142 113 181 155 153 195 154 173 182 222 236 271 299 266 265 249 266 250 187 207 237 76 172 203 215 206 140 143 138 144 154 157 164 164 160 154 137 128
358 358 357 357 356 353 350 345 340 332 324 316 310 303 301 300 296 301 307 310 318 322 325 331 324 318 350 12 216 260 258 16 15 28 58 155 179 180 185 182 178 174 157 157 192 188 194 180 160 161 131 142 172 148 184 187 110 155 173 250 250 282 278 236 263 261 239 245 193 201 216 97 150 210 223 158 154 157 146 149 158 159 164 162 149 130 122 125
359 359 357 358 357 356 353 348 343 336 327 320 312 305 300 297 298 300 298 305 311 317 329 330 312 307 10 352 222 236 251 313 336 352 70 151 179 190 194 189 186 186 177 177 210 204 213 185 164 136 118 156 163 143 185 169 114 143 156 262 268 314 264 215 250 251 195 229 162 166 192 161 186 191 139 151 158 157 151 154 157 160 167 160 138 123 131 129
358 358 358 357 356 356 355 351 347 339 332 325 315 309 301 295 297 295 292 298 292 295 336 350 321 341 26 259 228 249 278 294 302 309 165 169 181 194 197 193 190 195 195 188 186 202 210 203 145 72 124 167 170 129 134 105 160 165 132 273 284 306 248 191 150 103 180 206 150 173 230 220 205 180 148 159 163 158 156 161 164 166 166 151 135 132 137 130
355 357 357 357 356 355 354 352 349 341 334 329 321 311 302 297 294 293 293 287 280 278 248 261 308 79 115 261 267 288 295 287 272 252 203 185 173 168 183 189 189 192 195 177 126 199 207 203 70 86 160 214 16 172 139 50 32 140 142 168 316 238 208 171 141 152 179 160 159 202 244 229 213 178 166 170 170 167 164 167 170 170 163 149 142 143 143 143
353 354 355 356 355 354 353 351 349 344 335 333 328 318 309 301 296 291 280 264 273 258 176 168 236 110 294 276 286 291 282 287 257 241 226 198 178 154 171 180 183 190 187 169 103 159 193 194 117 108 191 339 129 185 215 47 54 53 192 181 179 221 227 295 180 190 201 70 162 206 238 238 235 159 167 174 179 177 171 169 171 171 161 152 154 151 147 149
352 352 352 353 352 353 352 349 349 347 339 332 327 322 310 300 294 282 273 238 122 155 168 128 152 197 271 286 323 308 256 274 265 250 218 197 194 161 154 159 162 176 177 175 152 116 155 167 88 4 40 127 160 148 134 129 111 52 256 196 175 201 237 319 141 211 258 77 182 214 230 233 263 146 170 174 184 183 173 167 169 172 162 156 162 157 153 153
352 351 349 349 350 351 350 348 348 348 343 332 330 327 311 302 300 313 100 117 110 157 172 134 89 204 259 282 313 315 258 276 281 249 179 183 201 161 140 138 141 149 146 154 174 141 131 149 61 49 54 67 153 153 162 186 192 175 245 193 194 212 225 252 138 82 262 178 210 217 219 224 45 138 171 172 185 185 175 171 170 174 168 165 166 160 161 161
350 349 347 346 347 347 347 345 344 346 342 331 337 342 330 43 94 75 113 134 125 129 157 146 153 220 263 274 296 300 299 295 271 160 162 167 177 156 140 130 131 129 126 95 128 185 193 4 322 156 114 70 157 177 188 198 184 168 186 187 199 223 220 257 264 106 149 225 219 196 211 227 84 143 171 171 183 185 181 175 172 175 176 176 173 170 170 167
347 347 347 345 345 345 344 342 339 342 339 332 339 352 16 116 113 113 118 131 140 178 242 200 189 285 319 269 285 295 299 286 225 175 158 159 159 149 119 111 127 125 139 145 148 184 180 129 158 174 173 182 182 194 200 174 138 145 160 199 202 233 238 257 267 242 228 239 212 196 212 215 167 161 173 173 182 187 187 179 175 179 180 182 181 179 175 174
346 346 346 345 344 343 341 339 335 336 336 334 341 358 64 112 101 134 142 199 210 246 279 217 189 249 291 272 288 303 301 267 234 176 162 164 157 149 81 72 112 99 131 153 151 148 204 173 181 200 196 198 195 188 154 116 115 130 142 201 220 246 261 265 254 1 280 232 210 203 222 212 166 168 171 178 186 189 191 186 186 188 187 187 187 186 181 178
345 345 344 344 343 341 340 336 330 330 330 330 328 246 253 179 5 334 282 238 227 228 248 229 196 222 248 253 286 39 24 303 327 144 166 165 154 157 167 23 124 131 120 246 131 108 217 195 212 220 201 181 161 145 127 119 116 129 173 232 234 222 255 287 118 358 291 224 209 153 198 189 140 168 164 175 186 194 201 198 197 197 197 195 192 193 190 181
344 344 342 342 341 340 340 333 327 323 317 312 252 236 255 200 300 312 296 277 255 216 229 236 214 242 247 247 252 294 20 271 316 125 164 157 156 178 164 79 158 154 49 273 141 116 212 217 227 211 145 99 101 131 141 130 136 127 162 237 212 209 262 291 235 348 10 213 179 121 160 98 45 157 117 119 169 189 202 204 210 207 205 204 199 197 197 192
342 342 341 340 339 340 340 330 324 318 306 266 236 236 227 253 305 300 256 288 283 215 216 223 212 236 236 248 238 199 190 215 210 209 175 161 157 185 151 134 159 135 136 187 178 168 196 244 236 161 141 127 106 124 137 122 170 182 171 212 200 179 257 163 129 350 3 10 86 122 130 75 57 114 126 53 52 103 155 184 214 219 216 213 207 202 201 201
341 341 339 338 337 340 340 328 318 322 329 289 266 249 214 310 318 292 186 266 285 271 223 202 198 218 218 229 190 176 183 199 195 202 179 166 131 144 162 145 142 146 181 185 169 191 218 287 97 124 145 153 124 132 163 165 201 218 206 216 227 219 243 247 34 316 288 60 64 116 136 103 91 144 162 163 126 129 136 169 203 220 227 222 216 216 211 210
341 340 337 336 337 338 338 327 299 346 325 298 268 244 342 334 328 196 176 310 272 282 262 185 200 215 196 166 163 167 165 191 216 198 173 168 144 137 157 132 168 186 175 149 147 216 244 180 132 132 133 158 145 163 197 190 190 228 214 216 220 209 234 266 0 285 195 102 52 353 168 132 84 127 156 159 191 182 163 193 206 210 219 219 220 221 218 219
341 340 337 335 335 337 340 328 219 324 318 290 232 244 329 334 328 171 163 356 262 283 310 165 218 189 165 149 158 156 143 190 224 168 166 172 154 137 146 130 260 197 154 146 156 236 233 122 144 152 137 160 174 213 211 186 178 224 208 203 202 185 184 218 210 194 184 124 68 333 213 150 96 94 138 180 196 190 177 203 212 211 214 214 219 222 220 222
341 340 336 332 332 339 342 289 297 313 298 269 268 299 323 330 267 166 162 357 271 278 144 199 262 177 165 165 168 160 159 160 126 145 171 176 161 117 176 166 169 175 148 152 187 217 157 124 108 126 118 150 187 226 200 180 178 194 161 165 168 169 179 182 160 145 167 83 145 357 336 162 129 118 223 205 184 193 204 210 212 214 214 211 214 217 217 218
340 339 335 328 328 330 309 280 295 284 247 281 306 310 324 327 164 164 18 10 275 271 145 326 138 164 149 151 181 199 280 124 136 167 185 175 168 51 194 195 188 171 149 180 200 176 146 175 178 155 123 174 207 216 177 175 186 301 115 124 138 149 157 152 130 115 62 239 177 17 351 182 154 113 177 183 176 193 212 218 220 223 224 222 219 215 212 214
339 337 330 324 323 321 297 266 262 262 274 295 311 318 325 226 160 128 48 179 267 1 89 4 133 152 91 115 211 255 321 10 140 154 122 163 178 47 175 192 154 144 112 210 219 235 126 221 185 163 175 215 218 163 170 175 184 137 127 101 92 88 78 80 110 115 113 215 182 12 347 211 188 57 106 175 168 176 214 237 241 249 252 245 238 230 216 209
337 333 327 323 317 313 297 258 265 280 283 298 323 325 329 147 141 48 100 248 280 41 74 184 165 179 121 132 225 261 271 316 54 106 111 141 136 44 89 121 99 136 123 345 255 259 349 342 144 182 220 184 115 77 124 146 114 145 135 102 97 76 51 62 42 74 178 203 165 4 341 296 201 221 296 219 126 9 310 285 280 299 293 271 254 244 227 215
335 330 324 316 299 287 262 260 284 302 240 322 334 330 14 108 60 121 194 258 283 1 17 53 26 102 139 153 210 221 207 283 84 134 143 136 136 91 118 135 94 119 156 282 256 294 332 272 216 228 196 131 111 91 58 51 107 147 134 127 135 87 32 113 39 339 203 192 93 16 329 278 210 197 246 286 353 340 306 296 303 304 296 290 283 260 231 211
333 329 322 308 284 255 238 244 270 274 276 317 334 340 136 122 192 192 243 292 310 352 44 1 300 121 153 204 204 183 177 173 156 155 149 152 170 171 181 178 159 153 201 224 224 338 260 229 275 319 193 172 137 107 96 88 85 161 135 148 163 150 167 201 207 218 222 222 50 9 308 234 236 271 294 315 336 336 318 303 300 297 291 298 310 282 183 117
331 329 321 308 275 248 251 260 261 269 283 298 326 56 96 155 212 212 240 278 17 11 87 207 302 296 175 220 199 175 160 177 193 179 147 136 174 184 198 134 159 166 176 198 188 201 228 244 311 214 201 196 177 156 149 164 184 182 162 163 172 152 157 194 185 230 247 249 29 349 290 197 209 302 296 315 331 336 332 320 305 298 302 344 48 89 91 89
332 330 321 313 291 270 277 277 258 262 279 269 133 88 132 185 225 208 220 247 290 327 324 308 327 329 168 201 258 171 160 186 175 164 158 140 171 197 202 169 184 142 96 148 182 194 209 225 195 188 164 166 189 191 149 144 154 173 171 162 173 165 176 202 196 203 211 158 87 154 207 192 157 58 326 323 334 353 355 354 17 49 75 86 91 94 92 92
333 333 331 347 351 336 327 299 249 221 218 173 100 126 176 195 233 189 203 242 268 313 321 348 357 334 174 287 319 236 186 201 118 150 164 158 176 187 182 196 200 160 136 174 202 150 220 252 249 265 337 169 194 190 102 121 133 126 348 146 180 183 151 140 139 166 189 151 138 178 215 271 221 265 306 308 351 42 34 51 91 97 103 104 101 99 98 97
336 346 21 21 359 344 332 311 213 184 182 142 133 191 200 214 219 176 185 197 103 338 311 327 77 169 246 253 329 333 172 95 97 165 174 178 196 180 181 204 188 181 177 173 190 151 154 254 297 337 93 87 242 171 108 186 159 133 182 177 169 75 113 115 114 55 12 204 175 170 223 226 218 198 182 173 145 109 84 86 98 104 112 111 107 110 112 111
338 355 67 1 350 340 324 286 177 168 163 145 180 204 214 224 196 177 218 30 92 61 346 310 311 252 255 219 229 293 300 106 101 193 168 176 211 177 198 227 184 194 200 172 202 224 198 211 341 1 126 43 327 137 84 20 106 142 182 163 135 80 83 111 149 91 126 205 173 127 226 183 197 181 153 167 160 129 110 91 95 106 113 111 107 111 115 118
332 343 58 353 346 335 321 174 163 156 126 172 197 220 206 204 189 189 242 47 84 44 73 207 283 349 330 213 226 277 253 174 134 122 139 184 226 165 182 238 181 200 222 202 201 215 211 219 326 292 170 45 340 152 109 54 23 45 143 134 133 189 166 146 162 152 181 200 166 154 252 236 213 203 165 186 179 146 140 126 124 122 110 107 101 98 98 105
332 338 24 353 347 343 130 149 153 141 105 185 198 214 199 211 240 233 225 96 111 88 72 228 260 348 293 232 234 284 275 191 156 136 160 195 210 138 73 287 165 319 295 220 201 143 137 232 217 251 294 0 355 236 180 133 57 57 118 118 24 272 174 171 153 170 190 191 164 160 197 231 214 216 192 187 181 169 165 160 158 145 117 114 110 120 139 113
354 115 35 5 13 73 115 136 146 119 164 183 200 198 187 223 245 245 223 200 186 191 249 208 175 279 268 261 240 253 326 153 145 165 202 184 162 107 14 357 21 349 332 176 187 129 86 215 210 83 304 215 183 1 241 183 116 121 155 157 148 86 87 173 108 35 196 177 169 169 196 216 168 66 217 180 186 186 174 164 169 163 141 136 127 149 164 125
14 106 9 3 29 94 88 122 139 80 166 145 4 195 265 210 232 298 238 203 224 235 274 180 186 243 252 275 261 229 339 140 143 157 204 187 185 134 44 103 56 0 0 119 157 174 123 178 188 13 139 174 67 10 299 243 182 170 177 174 159 131 143 169 164 162 14 169 180 173 192 170 81 29 303 312 287 207 174 167 162 137 128 127 118 124 122 108
39 111 358 357 323 207 3 92 170 17 156 131 277 209 285 194 201 300 18 52 266 273 17 196 216 239 205 234 261 208 278 242 168 190 186 154 208 61 185 164 105 55 347 139 179 199 125 116 117 68 39 138 37 17 328 245 129 110 84 108 153 138 144 178 187 174 141 144 156 142 193 142 67 9 315 299 296 205 153 157 135 117 117 116 108 106 107 111
60 147 1 9 346 220 345 74 249 353 139 292 305 228 314 31 319 314 64 34 348 60 10 245 210 233 209 246 253 198 215 224 193 208 156 94 70 11 313 199 96 59 336 343 37 132 118 81 93 102 44 329 121 110 335 289 123 91 55 50 208 152 101 136 180 154 156 162 148 163 191 135 55 10 3 26 68 92 96 104 107 109 111 109 112 114 109 105
35 227 352 19 36 99 71 56 316 333 316 317 358 28 350 25 24 348 80 35 11 60 341 266 129 301 308 5 209 154 180 208 227 6 79 92 111 25 338 8 106 84 328 287 321 277 146 96 108 127 139 139 162 182 197 173 89 73 59 16 323 97 105 115 99 130 177 178 164 193 189 122 56 31 43 58 81 91 86 87 95 96 101 104 107 102 93 89
15 173 262 11 33 55 79 30 290 281 308 332 30 21 353 8 13 349 74 62 29 54 25 313 8 330 347 47 74 45 38 107 337 20 79 29 56 47 357 349 106 121 136 105 33 22 86 104 101 161 180 173 170 189 185 147 111 92 92 20 5 92 126 137 133 171 192 172 163 202 165 119 87 43 39 36 47 75 78 79 81 75 76 80 76 76 73 73
30 41 303 338 23 45 61 20 358 316 303 344 45 17 354 344 326 331 71 68 31 33 37 7 348 327 18 50 94 49 17 357 11 71 81 26 0 40 354 330 355 104 113 95 65 87 98 59 37 57 156 145 132 153 258 249 149 107 91 54 17 339 342 106 125 173 171 146 165 221 114 138 121 29 22 19 20 44 60 58 69 72 64 65 66 70 68 60
85 47 355 327 349 16 25 26 21 9 341 337 60 11 353 351 346 342 31 50 54 51 50 32 22 22 354 23 116 81 0 359 29 37 33 5 322 325 327 322 358 32 95 96 49 77 93 39 4 34 39 35 36 47 61 43 57 65 53 25 1 332 328 75 98 133 148 155 177 180 133 145 108 11 5 7 3 14 32 30 44 53 43 58 78 77 73 66
49 145 293 321 335 0 1 356 7 17 12 14 58 22 5 18 31 20 349 0 47 29 16 38 25 18 346 252 133 82 0 15 35 19 359 2 2 344 339 15 24 9 40 84 24 81 103 68 308 39 63 52 30 9 49 72 69 62 44 22 359 345 350 64 78 57 176 186 156 135 132 120 60 1 358 6 0 5 21 17 31 38 30 69 89 82 72 63
42 95 287 339 57 22 342 324 335 22 25 15 29 27 14 21 33 26 348 336 23 13 15 55 16 8 11 20 120 83 20 38 55 28 6 4 11 25 13 15 8 1 23 69 49 99 111 104 237 160 82 53 26 13 49 66 71 60 43 29 17 13 22 64 84 56 63 71 71 107 108 88 34 347 359 8 355 12 44 45 51 50 51 78 82 75 67 62
45 59 317 26 66 13 348 336 343 34 31 13 18 20 13 19 20 13 14 27 27 359 6 37 3 355 25 46 70 84 42 16 46 31 12 9 16 36 48 51 333 342 4 59 53 18 112 138 197 139 80 40 13 24 44 49 53 48 32 24 26 25 21 34 49 40 69 87 91 96 93 79 36 15 34 34 29 54 58 54 53 51 56 75 77 69 64 62
10 239 331 74 46 3 352 344 356 43 33 12 11 4 6 16 4 351 44 56 59 35 351 339 330 323 36 47 52 62 20 323 281 309 318 345 1 359 39 94 308 326 353 31 18 0 86 126 133 79 114 178 4 46 60 56 51 28 359 19 20 16 19 30 34 359 358 102 126 127 102 90 82 75 67 58 56 58 54 49 51 54 56 67 73 70 66 63
357 236 29 76 78 10 351 340 7 41 45 4 351 348 352 359 355 0 73 58 43 50 6 317 319 334 40 38 25 354 319 284 261 274 280 266 295 289 282 292 293 309 343 14 36 16 99 140 146 137 157 180 49 78 91 82 73 328 290 58 32 53 111 107 51 18 358 22 147 142 109 108 117 108 82 66 58 57 52 44 46 54 59 66 68 66 64 62
Height
790 789 788 788 787 786 785 785 784 784 783 782 782 781 781 780 779 778 778 777 776 775 774 773 772 770 769 768 767 766 764 762 760 761 758 749 747 748 749 750 751 753 755 756 757 758 760 761 762 763 763 764 766 767 767 768 768 769 775 780 782 784 778 772 772 770 768 766 764 765 765 765 763 761 758 758 760 763 764 766 767 765 764 763 765 767 770 774
790 789 788 787 786 785 784 784 783 783 782 782 781 780 780 779 778 778 777 776 775 774 773 772 771 769 769 767 766 765 763 761 759 757 751 745 746 747 748 749 751 752 754 755 757 757 759 760 761 762 763 765 767 767 767 768 768 772 779 780 779 779 772 767 768 766 767 766 765 765 766 766 763 761 759 761 765 764 765 770 769 768 768 766 767 769 772 774
789 788 787 786 785 784 783 782 782 781 781 781 780 779 779 778 777 777 776 776 774 774 772 771 770 769 768 767 766 764 762 760 756 750 745 744 745 746 747 749 750 752 753 755 756 756 757 758 759 761 763 765 767 767 767 768 769 771 777 779 776 773 769 767 767 766 766 765 765 765 765 765 762 761 760 761 765 764 764 769 771 771 770 769 769 770 772 774
789 788 786 785 784 783 782 781 781 780 780 779 779 778 778 777 777 776 775 775 774 773 771 770 769 768 767 766 765 763 762 758 750 744 744 744 744 745 747 748 750 752 754 754 755 756 756 757 759 760 762 766 768 767 767 767 769 771 773 774 771 772 770 764 762 764 765 766 765 765 765 763 761 762 761 761 765 766 762 761 764 767 768 769 770 770 771 774
789 787 786 784 783 782 781 780 780 779 779 778 778 777 777 776 776 775 775 774 773 772 771 770 768 767 767 765 764 762 761 757 748 743 744 744 743 745 746 748 750 752 753 754 755 756 757 757 759 760 762 766 768 767 767 766 767 770 771 769 768 772 770 761 760 762 764 765 765 766 765 762 761 762 761 761 763 762 759 758 760 761 763 765 767 769 771 773
788 786 785 783 782 781 780 779 778 778 777 777 776 776 776 775 775 774 774 773 772 772 770 769 768 767 766 764 763 762 760 754 746 743 744 744 744 745 746 748 750 752 753 753 755 756 757 758 759 761 763 766 768 766 766 767 767 768 770 770 768 769 767 761 760 760 762 765 764 764 763 761 762 761 762 762 759 757 757 758 758 759 761 764 765 767 770 772
787 786 784 783 781 780 778 778 777 776 776 775 775 775 774 774 774 773 773 772 772 771 770 769 767 766 765 764 762 762 761 752 744 744 744 744 744 745 746 748 750 751 752 753 754 756 757 758 759 762 763 766 768 766 765 766 766 768 769 768 767 767 765 761 760 760 762 763 763 763 762 761 762 762 763 761 758 757 757 756 757 758 761 764 767 768 769 771
787 785 784 782 780 779 777 776 776 775 774 774 774 774 773 773 773 772 772 771 771 770 769 768 767 766 765 764 762 761 759 750 743 744 744 744 744 745 746 748 750 751 752 753 754 755 757 758 759 761 763 765 766 765 765 766 766 768 768 765 765 765 762 759 761 760 760 761 762 764 762 760 760 761 761 759 759 759 758 757 758 759 762 765 767 768 770 772
786 784 783 781 779 778 776 775 774 774 773 773 773 772 772 772 772 771 771 770 770 769 768 768 767 766 765 765 764 759 751 746 744 743 743 744 744 745 746 748 750 751 752 753 754 755 756 758 758 759 760 763 764 764 765 766 766 765 764 764 763 762 759 759 760 758 758 760 761 762 761 760 760 761 759 759 761 760 759 760 760 761 764 766 767 769 771 774
785 784 782 780 779 777 775 774 773 773 772 772 771 771 771 771 771 770 770 769 769 768 768 768 767 766 766 765 764 757 747 744 744 743 743 744 744 745 746 747 749 750 752 753 754 754 755 755 756 756 757 762 763 764 764 764 763 761 762 763 761 761 760 759 758 757 759 758 757 758 759 760 762 761 759 759 762 761 762 764 763 764 766 767 768 771 774 777
785 783 781 780 778 777 775 773 772 772 771 771 770 770 770 770 769 769 769 768 768 768 767 767 766 766 766 765 764 756 745 744 745 744 744 744 745 745 746 747 748 750 752 753 753 753 754 754 755 756 757 761 762 765 764 761 760 760 762 762 761 761 760 759 757 758 758 755 754 756 758 761 763 761 758 759 761 761 764 766 765 766 767 768 770 773 775 777
784 783 781 779 778 776 775 773 772 771 770 770 769 769 769 768 768 768 768 768 768 767 767 767 767 766 766 766 761 751 744 744 745 745 746 745 746 746 746 747 748 749 750 752 753 753 755 755 754 756 758 760 762 765 762 759 761 761 762 763 761 760 757 756 756 757 757 754 753 755 759 762 761 761 760 760 761 761 765 767 766 767 767 769 772 774 775 777
784 782 781 779 777 775 774 773 771 770 769 769 768 768 767 767 767 767 766 767 767 767 767 766 766 766 767 761 751 745 744 745 744 745 746 745 746 746 747 748 749 750 750 751 753 754 755 755 755 756 757 759 762 762 760 760 762 762 764 764 763 762 758 755 757 758 756 754 752 754 763 761 755 759 761 761 761 762 766 768 768 768 769 771 773 774 776 777
784 782 780 778 777 775 774 772 771 770 769 768 767 767 766 766 766 765 766 766 766 766 766 766 766 766 766 756 744 743 744 743 743 744 745 745 746 746 747 749 750 751 751 753 753 754 755 755 756 756 758 759 759 759 760 763 764 764 766 768 770 770 760 753 756 758 754 756 753 754 765 760 751 757 761 761 761 762 766 768 769 770 771 772 773 774 776 777
783 782 780 778 777 775 773 772 770 769 768 767 767 766 765 765 765 765 765 765 765 766 765 766 766 766 765 752 742 743 743 742 742 742 743 744 745 746 747 748 750 751 752 753 753 753 755 755 756 758 759 758 758 761 763 765 766 768 769 771 776 773 761 754 756 757 753 755 754 756 765 758 750 756 759 760 761 762 765 767 769 771 772 773 774 775 776 777
783 781 779 778 776 774 773 771 770 768 767 767 766 765 764 764 764 764 764 764 765 765 766 766 765 767 763 749 742 742 741 741 741 740 742 743 744 745 747 749 751 752 753 754 754 754 755 756 758 759 759 759 761 762 764 768 769 771 771 771 775 772 766 759 756 757 754 755 754 756 761 757 754 759 759 760 761 762 764 766 769 771 772 774 774 775 776 778
782 780 779 777 775 774 772 771 769 768 767 766 765 764 764 763 764 764 764 765 765 765 765 765 766 767 757 744 742 742 741 740 739 740 741 742 744 744 746 749 751 752 753 754 754 755 756 757 760 761 761 764 765 762 768 776 773 772 772 770 774 774 770 762 756 757 757 756 755 755 757 753 756 761 759 759 761 762 764 765 768 770 772 774 774 775 776 778
782 780 778 776 775 773 772 770 769 768 766 765 764 764 763 763 764 764 764 764 765 766 766 766 766 763 752 743 743 742 740 740 739 740 740 742 744 745 746 748 750 752 754 755 755 756 757 759 761 761 764 767 766 763 769 775 769 769 770 769 773 773 771 767 760 757 757 757 757 759 758 753 757 763 759 758 760 762 764 764 766 768 770 773 774 775 776 778
781 779 777 776 774 772 771 770 768 767 766 764 764 764 763 763 764 764 765 765 764 761 758 759 759 754 748 744 742 740 739 739 739 739 740 742 743 745 746 746 749 751 754 757 757 757 758 760 763 764 766 765 762 761 763 766 764 765 768 768 770 769 767 764 759 758 759 759 759 759 756 752 759 764 760 759 760 762 764 763 764 766 768 772 774 774 776 778
780 778 776 775 773 772 770 768 767 766 765 764 764 764 763 763 762 761 764 764 758 750 746 748 749 747 745 743 740 739 738 738 738 739 739 740 742 744 746 747 749 751 754 757 758 759 759 762 765 763 762 759 759 761 762 766 767 766 768 769 771 771 764 758 758 760 761 758 758 761 758 754 760 764 761 760 760 763 764 765 765 764 766 770 772 774 775 777
779 777 775 774 772 771 769 767 766 765 764 764 764 763 761 760 761 760 759 754 747 745 743 742 742 743 741 740 739 739 739 739 738 738 739 739 741 744 747 749 751 754 758 760 759 760 760 765 765 758 757 759 762 767 766 768 770 768 769 769 771 772 763 756 759 761 762 758 759 766 761 758 763 765 763 762 763 765 764 765 766 764 765 768 770 773 774 776
778 776 774 773 771 770 768 766 765 764 763 763 763 763 760 759 760 758 757 752 742 740 741 739 741 741 737 738 739 739 742 743 740 738 738 740 741 744 749 751 753 756 761 761 760 762 764 763 758 755 762 766 769 772 768 767 770 769 770 770 767 768 763 759 759 760 762 759 758 764 761 761 768 768 767 766 766 766 763 764 765 764 766 767 769 772 774 776
777 775 773 771 770 769 767 765 764 763 762 762 762 761 759 758 757 756 758 756 744 736 736 738 740 739 737 737 736 738 743 744 741 738 737 739 741 744 747 751 754 757 760 759 759 764 766 759 755 760 765 764 768 773 769 767 770 768 769 767 763 765 764 758 757 759 763 761 758 760 759 764 770 770 769 769 768 768 766 765 765 764 765 766 768 770 772 775
776 774 772 770 769 767 765 764 762 762 761 761 760 757 757 757 756 755 756 755 747 736 733 733 734 734 734 732 732 736 740 740 739 736 734 737 741 745 745 749 755 757 758 757 758 761 759 756 761 765 764 761 765 772 770 766 767 769 770 765 761 762 759 755 758 760 759 760 760 759 759 764 769 770 770 769 769 769 767 767 767 766 765 766 768 768 770 772
775 773 771 769 767 765 764 763 761 761 760 759 757 755 756 755 754 755 754 756 751 738 731 731 732 730 727 729 730 732 736 736 734 732 732 734 738 743 746 748 752 755 759 761 761 759 754 757 762 761 763 763 763 768 768 764 764 767 765 760 757 757 756 756 760 760 757 760 764 765 764 767 768 769 770 769 769 768 767 767 767 766 766 767 769 769 769 769
774 772 770 768 766 763 763 761 760 761 759 756 754 754 755 753 753 753 755 762 755 737 730 732 731 727 724 729 730 730 737 736 729 728 731 731 733 738 745 749 750 753 759 760 760 757 754 759 760 758 761 764 764 766 765 763 764 763 757 754 756 757 758 759 757 757 760 764 770 771 767 767 767 767 771 771 768 767 768 768 765 764 765 767 769 768 768 769
772 771 769 767 765 763 763 761 761 761 757 754 753 754 753 751 752 751 756 767 756 734 731 732 730 727 724 728 727 730 739 734 727 729 729 730 732 734 743 750 751 753 757 759 759 756 754 759 761 759 761 765 766 762 760 760 759 756 754 755 758 758 758 759 756 757 763 765 769 769 763 764 767 768 772 772 768 768 768 767 766 764 764 764 765 766 766 767
771 769 767 765 764 764 763 761 760 758 755 753 752 753 752 750 752 751 761 773 752 729 730 730 727 725 724 728 727 728 731 727 730 733 727 729 732 734 742 747 746 749 753 756 757 754 752 754 756 756 759 763 757 751 754 756 752 754 759 760 761 761 759 758 756 761 770 768 765 765 764 766 768 765 768 769 766 767 767 764 764 763 763 763 762 762 763 764
769 767 765 763 762 762 761 760 759 755 752 752 752 752 750 751 750 752 769 771 743 726 728 726 726 726 726 730 730 728 727 725 730 732 728 730 732 733 741 743 744 749 752 752 751 750 751 750 749 751 753 752 749 750 754 751 749 757 763 761 761 764 764 762 761 762 769 770 768 771 772 772 770 763 762 764 762 764 766 763 763 764 763 762 762 762 762 763
766 764 763 761 760 759 759 758 754 751 751 751 751 750 749 750 752 765 779 764 738 730 728 725 729 729 730 735 735 731 730 729 728 729 731 733 732 734 739 741 743 748 751 752 751 749 750 750 750 748 746 746 749 757 759 754 754 758 757 755 757 761 761 763 766 763 768 774 774 781 783 776 773 767 763 764 764 768 769 766 765 765 763 762 761 762 762 763
763 761 760 759 758 758 758 755 750 749 750 749 750 748 749 754 762 776 774 750 737 735 728 728 732 729 731 736 736 732 732 731 729 731 734 735 736 738 741 744 746 751 755 754 752 751 750 751 749 744 743 746 749 756 760 758 759 757 752 752 758 763 763 766 769 768 775 780 779 787 790 780 774 768 763 764 767 770 772 769 768 766 764 763 762 762 762 763
759 757 756 755 755 754 753 751 748 749 749 748 750 747 751 763 771 772 759 742 740 738 732 734 733 730 733 734 733 732 732 732 730 731 735 737 740 741 741 744 747 755 762 758 754 754 749 745 745 743 742 743 743 752 759 759 758 755 753 756 764 772 777 777 778 779 780 779 781 789 788 779 773 767 764 767 768 769 771 770 770 768 765 764 764 764 763 764
755 753 752 751 750 749 747 747 748 748 748 748 750 748 755 769 769 760 752 745 743 738 734 735 732 732 736 734 733 732 731 733 731 731 734 737 741 742 741 743 742 747 756 760 759 756 750 746 744 743 742 739 738 746 754 757 757 754 753 757 765 777 790 793 793 795 788 779 784 789 783 778 775 769 767 770 770 770 771 771 770 769 768 767 766 765 766 767
752 750 748 747 747 745 744 746 746 747 748 748 749 752 762 769 762 753 752 747 742 738 735 735 734 734 735 734 732 730 731 734 732 732 735 739 744 746 744 746 745 742 748 759 763 758 757 754 744 739 740 739 737 738 742 747 753 756 754 753 758 767 778 786 785 785 782 779 785 787 781 778 776 771 769 770 771 771 771 771 771 770 769 768 767 767 768 770
749 747 745 745 745 744 743 744 744 746 748 747 750 757 762 762 757 753 751 745 741 740 736 736 736 735 735 735 731 728 729 733 734 734 736 739 742 744 743 742 744 743 745 756 761 760 763 756 740 739 742 740 738 736 736 742 752 763 760 754 757 756 759 779 789 784 781 780 784 785 782 779 775 772 772 772 772 772 772 772 771 770 770 768 768 769 770 772
746 745 744 744 743 743 742 742 743 745 746 747 752 758 756 751 750 749 744 739 740 741 738 737 737 736 738 736 733 731 728 730 735 736 737 740 739 741 741 738 738 740 739 747 756 759 762 753 739 741 743 739 740 738 738 741 747 760 761 755 759 756 755 776 795 797 792 783 785 790 784 778 774 772 772 773 774 774 774 773 772 772 771 770 770 770 771 772
744 743 743 743 741 740 739 739 742 744 745 747 751 754 751 746 743 743 740 738 740 739 739 741 739 738 741 739 736 734 730 730 735 736 739 742 739 738 738 734 734 734 731 736 747 751 753 749 742 742 741 741 743 740 739 741 743 751 754 751 757 761 759 766 780 794 794 784 787 793 788 781 776 771 770 772 773 774 775 774 774 774 772 773 774 773 773 773
744 743 743 743 741 738 737 738 740 743 745 748 750 751 752 747 742 741 739 738 740 739 741 744 741 740 743 742 738 735 733 734 736 736 739 742 740 737 735 733 732 733 731 731 738 745 748 748 746 745 743 742 741 739 742 745 743 744 744 745 752 760 763 768 777 785 787 789 792 793 795 788 775 768 768 769 770 772 774 775 775 775 775 776 777 777 777 776
744 743 743 744 740 736 736 738 741 742 744 749 749 748 750 747 742 742 739 738 741 741 742 744 743 743 743 741 739 736 735 736 737 737 739 741 740 735 735 736 734 735 735 733 736 743 748 750 749 747 745 744 741 741 745 747 747 746 746 749 753 756 760 765 771 770 773 790 796 791 792 782 767 766 765 764 767 770 772 775 775 776 778 779 779 779 779 779
745 743 745 746 741 738 739 740 743 743 745 750 750 747 748 745 741 740 738 738 739 739 742 745 745 745 742 740 741 738 737 737 738 739 738 738 739 736 736 737 736 737 736 735 738 742 746 751 751 747 745 746 746 747 749 748 748 749 750 754 757 762 765 764 771 773 770 781 789 790 788 774 764 771 768 763 767 768 770 773 775 777 779 780 780 780 780 779
745 744 746 747 743 742 742 742 745 746 747 751 751 748 747 742 738 737 736 738 737 736 739 742 742 743 742 740 740 738 737 737 738 739 738 738 739 737 738 738 738 738 736 736 738 741 746 750 751 750 748 748 750 753 755 752 751 750 749 751 755 760 762 762 773 782 776 775 781 783 778 768 770 779 775 770 771 770 771 772 774 777 779 780 781 779 780 780
746 749 750 746 744 744 743 744 750 751 747 747 747 745 743 740 738 738 736 738 739 738 739 739 739 741 741 740 739 738 738 737 738 738 736 738 738 736 738 738 737 739 739 739 741 742 745 747 751 755 755 754 754 756 758 757 756 753 752 757 758 754 752 755 764 774 778 782 782 777 772 768 775 783 779 777 777 773 773 773 774 779 779 780 781 780 781 781
751 752 750 746 745 744 743 745 750 750 746 745 745 744 742 741 740 739 738 741 741 740 741 740 740 740 740 741 740 739 739 738 739 739 736 738 739 737 739 735 733 740 742 740 742 744 746 750 755 760 759 753 750 753 756 757 755 753 757 766 765 756 753 756 759 763 771 779 777 773 773 771 776 783 780 778 778 775 775 776 776 780 780 781 781 781 781 781
757 756 752 748 744 742 749 756 758 755 752 748 745 744 744 743 743 741 741 744 744 744 744 742 742 742 742 744 742 741 743 740 739 741 738 739 739 737 739 734 731 740 747 745 744 743 747 753 756 761 765 762 758 757 756 753 754 758 764 770 770 766 762 762 764 762 765 774 771 766 769 773 778 783 780 777 777 775 777 778 777 780 781 782 782 782 782 781
758 756 755 753 747 746 757 765 765 763 760 753 749 751 750 746 745 745 744 746 748 749 748 745 747 747 746 746 745 744 745 743 742 743 742 741 739 737 740 737 733 738 746 748 745 743 751 760 760 758 762 766 767 765 762 759 760 763 767 768 769 769 761 757 762 760 761 775 775 763 764 773 780 783 782 782 781 779 779 779 779 781 782 783 784 784 784 784
759 760 761 758 754 756 762 765 765 765 762 757 756 759 759 753 748 746 746 748 750 751 751 751 751 749 746 745 745 746 748 746 743 745 745 745 743 741 742 740 737 737 740 744 745 747 757 769 770 764 759 760 763 767 769 767 762 761 764 766 768 771 764 756 757 758 762 773 773 766 769 775 780 786 788 789 788 785 785 784 782 784 784 785 786 786 786 787
764 770 774 768 763 764 766 766 767 767 763 761 763 766 766 760 754 748 746 748 751 752 752 754 753 750 748 747 744 747 753 749 746 749 752 750 747 745 743 742 740 738 737 740 745 750 759 769 774 772 770 770 770 770 770 768 765 767 769 768 769 771 766 756 755 762 766 766 767 772 776 776 784 793 795 795 796 792 791 790 788 788 788 788 788 788 789 790
767 774 779 775 772 774 773 771 772 770 766 764 767 770 768 763 760 758 755 751 751 752 752 754 756 755 756 754 747 750 755 752 751 756 757 753 750 747 743 741 742 741 739 742 746 748 758 770 774 774 775 777 777 774 769 768 773 778 779 778 775 771 765 760 766 776 772 762 765 777 781 782 791 799 799 800 801 798 797 797 795 794 793 790 789 790 791 792
772 775 777 775 776 780 779 776 774 773 771 769 770 773 772 769 766 765 763 757 753 756 756 757 760 759 759 757 752 755 760 756 756 761 761 758 755 753 749 746 745 745 742 745 750 749 755 770 776 774 774 778 780 777 772 770 773 778 782 787 785 782 779 776 782 790 783 777 783 786 786 795 802 803 802 802 802 801 800 799 797 797 796 793 791 793 794 795
777 779 779 775 777 779 778 778 776 775 776 776 776 777 777 775 772 768 767 764 761 762 763 762 763 762 760 758 755 761 767 763 761 763 763 761 758 757 759 756 754 752 747 748 753 749 752 768 775 771 774 780 781 778 774 771 773 776 781 787 785 781 781 783 790 795 786 786 796 792 789 801 808 805 804 804 801 800 799 799 800 801 799 796 795 797 798 799
781 783 782 778 780 782 781 780 779 778 781 783 783 783 781 779 776 771 769 769 768 770 770 768 766 763 760 759 760 765 771 770 767 765 763 763 762 761 762 761 760 757 752 752 754 749 752 768 777 774 774 780 784 783 779 777 780 780 780 787 788 783 783 790 799 803 792 787 791 786 786 801 809 806 806 804 802 803 803 803 804 803 801 799 799 801 802 802
782 783 783 780 781 786 787 784 780 780 786 790 788 787 787 783 778 772 770 770 768 770 772 771 767 762 759 761 764 767 769 769 767 765 764 764 765 764 763 762 762 761 757 756 758 757 756 763 772 773 773 781 789 790 786 784 785 784 786 797 803 799 800 803 806 810 808 800 791 785 790 805 810 806 806 807 807 808 809 809 808 806 805 803 803 805 805 806